TimeMST,TemperatureF,Dew PointF,Humidity,Sea Level PressureIn,VisibilityMPH,Wind Direction,Wind SpeedMPH,Gust SpeedMPH,PrecipitationIn,Events,Conditions,WindDirDegrees,DateUTC
12:56 AM,46.9,32.0,56,29.90,10.0,West,5.8,-,N/A,,Partly Cloudy,260,2011-11-07 07:56:00
1:56 AM,46.9,32.0,56,29.88,10.0,West,8.1,-,N/A,,Partly Cloudy,270,2011-11-07 08:56:00
2:56 AM,48.0,32.0,54,29.86,10.0,South,4.6,-,N/A,,Overcast,180,2011-11-07 09:56:00
3:56 AM,48.0,30.9,52,29.86,10.0,South,3.5,-,N/A,,Overcast,170,2011-11-07 10:56:00
4:56 AM,46.9,30.9,54,29.86,10.0,Calm,Calm,-,N/A,,Overcast,0,2011-11-07 11:56:00
5:55 AM,46.4,30.2,53,29.86,10.0,Variable,3.5,-,N/A,,Mostly Cloudy,0,2011-11-07 12:55:00
6:55 AM,46.4,30.2,53,29.89,10.0,Variable,6.9,-,N/A,,Mostly Cloudy,0,2011-11-07 13:55:00
7:55 AM,46.4,28.4,50,29.89,10.0,South,8.1,-,N/A,,Mostly Cloudy,190,2011-11-07 14:55:00
8:55 AM,48.2,28.4,46,29.90,10.0,SSW,16.1,29.9,N/A,,Mostly Cloudy,210,2011-11-07 15:55:00
9:55 AM,51.8,30.2,44,29.89,10.0,SSW,23.0,31.1,N/A,,Mostly Cloudy,200,2011-11-07 16:55:00
10:22 AM,51.8,33.8,50,29.99,10.0,SW,18.4,24.2,N/A,Rain,Light Rain Showers,230,2011-11-07 17:22:00
10:55 AM,41.0,37.4,87,30.02,7.0,West,18.4,26.5,N/A,Rain,Light Rain Showers,270,2011-11-07 17:55:00
11:55 AM,46.4,39.2,76,29.94,10.0,West,19.6,28.8,N/A,,Mostly Cloudy,260,2011-11-07 18:55:00
12:55 PM,50.0,35.6,58,29.93,10.0,WSW,25.3,29.9,N/A,,Mostly Cloudy,250,2011-11-07 19:55:00
1:55 PM,51.8,24.8,35,29.93,10.0,WSW,20.7,33.4,N/A,,Scattered Clouds,250,2011-11-07 20:55:00
2:55 PM,51.8,23.0,33,29.93,10.0,WSW,18.4,26.5,N/A,,Scattered Clouds,240,2011-11-07 21:55:00
3:55 PM,51.8,23.0,33,29.94,10.0,WSW,13.8,25.3,N/A,,Scattered Clouds,250,2011-11-07 22:55:00
4:55 PM,48.2,24.8,40,29.97,10.0,West,12.7,-,N/A,,Partly Cloudy,270,2011-11-07 23:55:00
5:55 PM,42.8,28.4,57,30.01,10.0,West,11.5,-,N/A,,Partly Cloudy,280,2011-11-08 00:55:00
6:55 PM,41.0,30.2,65,30.03,10.0,WSW,15.0,-,N/A,,Partly Cloudy,250,2011-11-08 01:55:00
7:55 PM,39.2,30.2,70,30.06,10.0,West,8.1,-,N/A,,Partly Cloudy,280,2011-11-08 02:55:00
8:55 PM,37.4,30.2,75,30.08,10.0,West,3.5,-,N/A,,Partly Cloudy,280,2011-11-08 03:55:00
9:55 PM,37.4,30.2,75,30.09,10.0,West,9.2,-,N/A,,Partly Cloudy,260,2011-11-08 04:55:00
10:55 PM,37.4,30.2,75,30.13,10.0,West,9.2,-,N/A,,Partly Cloudy,260,2011-11-08 05:55:00
11:56 PM,36.0,30.0,79,30.12,10.0,West,6.9,-,N/A,,Clear,260,2011-11-08 06:56:00